User: anonymous   Login
Location: Unspecified
(0.0000°N, 0.0000°E)
Time: 12:45:55
(UTC+00:00)
Language:

LO-87 - Orbit

View from above orbital plane
View from above orbital plane
View from above satellite
View from above satellite

Ground track
Ground track

The orbit data is extracted from the following two-line orbital elements,

1 41557U 16033B   18170.20247933  .00001271  00000-0  49141-4 0  9996
2 41557  97.4377 254.4151 0015352 150.6902 209.5201 15.28010008114462
Epoch (UTC): 19 June 2018 04:51:34
Eccentricity: 0.0015352
inclination: 97.4377°
perigee height: 471 km
apogee height: 492 km
right ascension of ascending node: 254.4151°
argument of perigee: 150.6902°
revolutions per day: 15.28010008
mean anomaly at epoch: 209.5201°
orbit number at epoch: 11446

The dashed part of the orbit path shows where the satellite is in the earth's shadow,  

DLR